Flag for Germany Weather past 2 weeks in Mörfelden-Walldorf, Hesse, Germany

Now
61 °F

Passing clouds.


Feels Like: 61 °F
Forecast: 52 / 70 °F
Wind: 3 mph from North

Location: Frankfurt-M-Flughafen Airport

Current Time: May 22, 2015 at 11:40:54 PM

Latest Report: May 22, 2015 at 10:50 PM


Visibility: N/A

Pressure: 30.18 "Hg

Humidity: 52%

Dew point: 43 °F

Location of Mörfelden-WalldorfLocation

Historic Weather in Mörfelden-Walldorf — Graph

°F

Mörfelden-Walldorf temperature yesterday

Maximum temperature yesterday: 64 °F (at 4:20 PM)
Minimum temperature yesterday: 41 °F (at 3:20 AM)
Average temperature yesterday: 53 °F

Past Weeks' High & Low Weather Summary

 TemperatureHumidityPressure
High84 °F (May 12, 4:20 PM)94% (May 9, 9:20 PM)30.33 "Hg (May 9, 9:20 PM)
Low39 °F (May 22, 4:50 AM)23% (May 18, 3:20 PM)29.68 "Hg (May 18, 7:20 PM)
Average59 °F58%30.07 "Hg
* Reported May 7 10:20 PM — May 22 10:20 PM, Mörfelden-Walldorf, Weather by CustomWeather, © 2015

Note: Actual official high and low records may vary slightly from our data, if they occured in-between our weather recording intervals... More about our weather records

Advertising

Mörfelden-Walldorf weather history for previous 24 hours

 ConditionsComfort  
Time TempWeatherWind HumidityBarometerVisibility
10:20 PM
Fri, May 22
59 °FPassing clouds.3 mph55%30.18 "HgN/A
9:50 PM59 °FSunny.1 mph51%30.18 "Hg10 mi
9:20 PM61 °FPassing clouds.5 mph48%30.18 "HgN/A
8:50 PM64 °FPassing clouds.6 mph40%30.18 "HgN/A
8:20 PM66 °FSunny.5 mph32%30.18 "Hg10 mi
7:50 PM66 °FSunny.7 mph30%30.18 "Hg10 mi
7:20 PM66 °FSunny.7 mph32%30.18 "Hg10 mi
6:50 PM66 °FPassing clouds.5 mph35%30.18 "HgN/A
6:20 PM68 °FPassing clouds.6 mph30%30.18 "HgN/A
5:50 PM68 °FPassing clouds.5 mph30%30.18 "HgN/A
5:20 PM68 °FPassing clouds.5 mph30%30.18 "HgN/A
4:50 PM68 °FSunny.2 mph30%30.21 "Hg10 mi
4:20 PM66 °FSunny.5 mph35%30.21 "Hg10 mi
3:50 PM66 °FSunny.2 mph30%30.21 "Hg10 mi
3:20 PM66 °FPassing clouds.3 mph30%30.24 "HgN/A
2:50 PM66 °FPassing clouds.5 mph30%30.24 "HgN/A
2:20 PM66 °FSunny.6 mph28%30.24 "Hg10 mi
1:50 PM68 °FPassing clouds.5 mph28%30.27 "HgN/A
1:20 PM66 °FSunny.5 mph30%30.27 "Hg10 mi
12:50 PM64 °FSunny.5 mph32%30.27 "Hg10 mi
12:20 PM64 °FSunny.2 mph34%30.30 "Hg10 mi
11:50 AM63 °FSunny.2 mph34%30.30 "Hg10 mi
11:20 AM63 °FSunny.3 mph37%30.30 "Hg10 mi
10:50 AM63 °FSunny.2 mph42%30.30 "Hg10 mi
10:20 AM61 °FPassing clouds.2 mph45%30.33 "HgN/A
9:50 AM57 °FPassing clouds.2 mph51%30.33 "HgN/A
9:20 AM55 °FPassing clouds.3 mph51%30.33 "HgN/A
8:50 AM54 °FSunny.3 mph58%30.33 "Hg10 mi
8:20 AM52 °FPassing clouds.3 mph62%30.33 "HgN/A
7:50 AM50 °FSunny.6 mph67%30.33 "Hg10 mi
7:20 AM48 °FPassing clouds.5 mph71%30.33 "HgN/A
6:50 AM46 °FSunny.7 mph76%30.33 "Hg10 mi
6:20 AM45 °FClear.6 mph81%30.33 "Hg10 mi
5:50 AM43 °FClear.5 mph81%30.33 "Hg10 mi
5:20 AM45 °FClear.5 mph87%30.33 "Hg10 mi
4:50 AM39 °FClear.3 mph93%30.33 "Hg10 mi
4:20 AM41 °FClear.6 mph87%30.33 "Hg10 mi
3:50 AM41 °FPassing clouds.3 mph87%30.33 "HgN/A
3:20 AM41 °FFog.3 mph87%30.33 "HgN/A
2:50 AM41 °FClear.2 mph87%30.33 "Hg10 mi
2:20 AM41 °FClear.2 mph87%30.33 "Hg10 mi
1:50 AM43 °FClear.1 mph87%30.33 "Hg10 mi
1:20 AM43 °FClear.2 mph87%30.33 "Hg10 mi
12:50 AM45 °FClear.No wind81%30.33 "Hg10 mi
12:20 AM45 °FClear.1 mph81%30.33 "Hg10 mi
11:20 PM
Thu, May 21
46 °FClear.1 mph76%30.33 "Hg10 mi
Weather by CustomWeather, © 2015

See weather overviewHow to use our weather pages